User: anonymous   Login
Location: Unspecified
(0.0000°N, 0.0000°E)
Time: 06:46:48
(UTC+00:00)
Language:

STPSAT 1 - Orbit

View from above orbital plane
View from above orbital plane
View from above satellite
View from above satellite

Ground track
Ground track

The orbit data is extracted from the following two-line orbital elements,

1 30775U 07006D   17085.94727162 +.00002225 +00000-0 +90031-4 0  9992
2 30775 035.4297 288.1217 0002896 269.1894 090.8497 15.24633190555014
Epoch (UTC): 26 March 2017 22:44:04
Eccentricity: 0.0002896
inclination: 35.4297°
perigee height: 490 km
apogee height: 494 km
right ascension of ascending node: 288.1217°
argument of perigee: 269.1894°
revolutions per day: 15.24633190
mean anomaly at epoch: 90.8497°
orbit number at epoch: 55501

The dashed part of the orbit path shows where the satellite is in the earth's shadow,  

DLR